Regional Weather Roundup
Issued by NWS

Home | Current Version | Previous Version | Text Only | Print | Product List | Glossary On
Versions: 1 2 3 4 5 6 7 8 9 10 11 12 13 14 15 16 17 18 19 20 21 22 23 24 25 26 27 28 29 30 31 32 33 34 35 36 37 38 39 40 41 42 43 44 45 46 47 48 49 50
000
ASUS44 KLUB 042201
RWRTX
WEST TEXAS WEATHER ROUNDUP
NATIONAL WEATHER SERVICE LUBBOCK TX
500 PM CDT WED MAY 04 2016

NOTE: "FAIR" INDICATES FEW OR NO CLOUDS BELOW 12,000 FEET WITH NO
SIGNIFICANT WEATHER AND/OR OBSTRUCTIONS TO VISIBILITY.

TXZ004-006>008-010-012-014-016-OKZ002-042300-
TEXAS PANHANDLE/OKLAHOMA PANHANDLE

CITY           SKY/WX    TMP DP  RH WIND       PRES   REMARKS
AMARILLO       SUNNY     78  36  21 CALM      30.15F
BORGER         SUNNY     79  34  19 N8        30.12F
CANADIAN       SUNNY     80  42  25 N9        30.07F
DALHART        SUNNY     78  37  22 CALM      30.17F
DUMAS          SUNNY     78  38  23 NE3       30.15F
GUYMON         SUNNY     78  36  21 NE7       30.10F
HEREFORD       SUNNY     79  32  18 CALM      30.17F
$$

TXZ026-029-035-045-048-042300-
SOUTHERN PANHANDLE/SOUTH PLAINS/ROLLING PLAINS

CITY           SKY/WX    TMP DP  RH WIND       PRES   REMARKS
CHILDRESS      SUNNY     85  32  15 N9        30.05F
SEMINOLE       SUNNY     81  27  13 CALM      30.13F
LUBBOCK        SUNNY     83  28  13 NE10      30.11F
SNYDER           N/A     81  38  21 N8        30.09F
$$

TXZ052-054-060>062-072-078-127-140-154-169-042300-
PERMIAN BASIN/CONCHO VALLEY/BIG COUNTRY/EDWARDS PLATEAU

CITY           SKY/WX    TMP DP  RH WIND       PRES   REMARKS
ABILENE        SUNNY     80  43  26 N10       30.07F
BROWNWOOD      SUNNY     79  45  29 NW14      30.05F
JUNCTION       SUNNY     84  34  16 NW9G18    30.06F
MIDLAND        SUNNY     84  26  12 VRB6      30.10F
ODESSA         SUNNY     86  25  11 VRB7      30.12F
SAN ANGELO     SUNNY     83  38  20 N10       30.08F
WINK           SUNNY     85  28  12 VRB7      30.09F
$$

TXZ055-058-074-075-080-082-042300-
FAR WEST/SOUTHWEST MOUNTAINS/TRANS PECOS

CITY           SKY/WX    TMP DP  RH WIND       PRES   REMARKS
DRYDEN           N/A     87  32  14 MISG      30.05F
EL PASO        MOSUNNY   85  23  10 E14       30.10F
FORT STOCKTON  SUNNY     83  30  14 MISG      30.11F
MARFA          SUNNY     77  24  14 VRB6      30.19F
PRESIDIO       FAIR      89  33  13 MISG      30.04F
$$

TXZ014-016-019-021>030-083-042300
TEXAS TECH WEST TEXAS MESONET/TEXAS PANHANDLE/NORTHERN SOUTH PLAINS

CITY           SKY/WX    TMP DP  RH WIND       PRES   REMARKS
ABERNATHY 5ENE   N/A     80  31  17 N7        30.15F
AMARILLO 9NNE    N/A     79  35  20 NW5       30.15S
AMARILLO 7SSE    N/A     77  35  21 E2        30.17F
AMHERST 1NE      N/A     80  26  13 N10G16    30.15F
BOOTLEG 11WNW    N/A     76  33  20 S2        30.21F
CANADIAN 6E      N/A     80  43  26 NW13      30.07F
CAPROCK CYN SP   N/A     81  34  18 N9        30.11F
CHILDRESS 2NNE   N/A     84  34  16 N6        30.06F
CLARENDON 2WSW   N/A     79  36  20 N5        30.12F
CLAUDE 12SW      N/A     78  36  22 NW5       30.15F
DIMMITT 2NE      N/A     79  31  17 NW5       30.17F
FLOYDADA 2NNE    N/A     79  28  15 W3        30.12F
FRIONA 2NE       N/A     78  28  16 N8        30.19F
GOODLETT 3W      N/A     84  34  16 NW3       30.04F
HART 3N          N/A     80  29  15 NW6G14    30.16F
HEREFORD 2NW     N/A     78  28  15 N1        30.19F
MCLEAN 1E        N/A     79  36  21 NW9G15    30.10F
MEMPHIS 1NE      N/A     83  33  16 N12       30.07F
MULESHOE 2SSW    N/A     80  28  14 NE7       30.17F
OLTON 6S         N/A     79  27  15 NW5       30.15F
PALO DURO SP     N/A     79  35  20 NW3       30.16F
PAMPA 2E         N/A     76  38  25 N7        30.14F
PLAINVIEW 1S     N/A     80  29  15 N7G14     30.14F
SILVERTON 7ESE   N/A     79  34  19 NE6       30.11F
TULIA 2ENE       N/A     78  35  21 N5G12     30.16F
TURKEY 2WSW      N/A     83  33  17 NE7       30.09F
UMBARGER 3NNE    N/A     77  36  22 NE5       30.17F
$$

TXZ033>036-039>041-045>048-042300
TEXAS TECH WEST TEXAS MESONET/SOUTH PLAINS

CITY           SKY/WX    TMP DP  RH WIND       PRES   REMARKS
AIKEN 3WSW       N/A     80  31  17 N7        30.15F
ANDREWS 2NE      N/A     83  24  11 NE3G9     30.15F
ANTON 6SSW       N/A     81  29  14 N10G17    30.14F
BROWNFIELD 2S    N/A     83  25  12 N5G14     30.13F
DENVR CTY 7WNW   N/A     81  22  11 E6        30.15F
GAIL 2ESE        N/A     84  31  14 N6        30.09F
LAMESA 2SE       N/A     83  26  12 SW3       30.12F
LEVELLAND 4S     N/A     81  25  13 N9G15     30.15F
LUBBOCK 3WNW     N/A     82  28  13 NW7       30.13F
MORTON 1ENE      N/A     81  24  12 NW3G12    30.15F
ODONNELL 1N      N/A     83  23  11 N9G16     30.12F
PLAINS 3N        N/A     81  25  12 N10G17    30.16F
RALLS 1SE        N/A     81  27  14 NE3G10    30.13F
REESE CENTER     N/A     81  27  13 NW8       30.14F
SEAGRAVES 1SW    N/A     82  26  12 E5G14     30.13F
SEMINOLE 2NNE    N/A     82  24  11 W3        30.13F
SLATON 2NE       N/A     82  24  12 N5        30.12F
SNYDER 3E        N/A     83  36  18 NW10      30.09F
SUNDOWN 8SW      N/A     83  25  12 NW6       30.14F
TAHOKA 3NNE      N/A     83  25  12 NE5       30.12F
WOLFFORTH 6SSW   N/A     82  25  12 NE6       30.13F
$$

TXZ031-032-036>038-042>044-042300-
TEXAS TECH WEST TEXAS MESONET/ROLLING PLAINS

CITY           SKY/WX    TMP DP  RH WIND       PRES   REMARKS
ASPERMONT 3NE    N/A     84  36  18 N7        30.07F
FLUVANNA 3WNW    N/A     83  27  13 N12       30.11F
GRAHAM 5SSW      N/A     82  27  13 NW13      30.11F
GUTHRIE 10WSW    N/A     83  37  19 N6        30.08F
HASKELL 1NW      N/A     82  33  17 N6        30.06F
JAYTON 1SSE      N/A     84  33  16 E5        30.07F
KNOX CITY 3NW    N/A     84  37  18 NE2       30.06F
LK A HENRY 1NW   N/A     84  32  15 NE6       30.09F
NORTHFIELD 1S    N/A     85  35  17 N9        30.07F
ODELL 4ENE       N/A     84  41  22 N12       30.04F
PADUCAH 10SW     N/A     83  37  19 NE8       30.07F
POST 1NE         N/A     84  29  13 N3        30.09F
RRING SPRGS 3N   N/A     81  37  21 N8G15     30.10F
SEYMOUR 3NW      N/A     83  39  21 N8        30.05F
SPUR 1W          N/A     82  32  16 NE7       30.09F
WEINERT 2NNE     N/A     83  42  23 NE5       30.06F
WHITE RVR 6NE    N/A     82  32  16 N8        30.10F
$$

TXZ052-054-060>062-072-078-127-140-154-169-042300-
TEXAS TECH WEST TEXAS MESONET/PERMIAN BASIN/
CONCHO VALLEY/BIG COUNTRY/EDWARDS PLATEAU

CITY           SKY/WX    TMP DP  RH WIND       PRES   REMARKS
COYANOSA 2N      N/A     85  29  13 NW5       30.11F
JUNCTION 1SSW    N/A     83  39  21 N9        30.08F
MERTZON 3NNE     N/A     82  39  21 N5        30.12F
SAN ANGELO 7NW   N/A     83  33  17 NW9       30.09F
STRLNG CT 4WSW   N/A     82  38  21 N8        30.12F
ST LAWRNCE 5SW   N/A     82  29  14 N8        30.12F
SWEETWATR 11SW   N/A     80  41  24 N9        30.12F
WALL 1E          N/A     81  36  19 N9        30.10F
$$

TXZ055-058-074-075-080-082-042300-
TEXAS TECH WEST TEXAS MESONET/FAR WEST/SOUTHWEST MOUNTAINS/TRANS PECOS

CITY           SKY/WX    TMP DP  RH WIND       PRES   REMARKS
PRSMN GAP BBNP   N/A     85  32  14 N3        30.08F
GUADLPE MTN NP   N/A     73  20  13 E12       30.26F
$$




USA.gov is the U.S. government's official web portal to all federal, state and local government web resources and services.